Погода в Шарлыке

Россия / Оренбургская область     52°55′33″N   54°44′28″E
темп.,
°C
ветер,
м/с
пор.,
м/с
влажн.,
%
обл.,
%
осадки,
мм/ч
давл.,
гПа
погр.,
м
24 января, пн
пн2423:00−16в2289100 0.0 10379
02:00−15вюв2293100 0.0 10379
05:00−14вюв229397 0.0 103811
08:00−16в1193100 0.0 10389
11:00−15всв1191100 0.0 103812
14:00−11юв2283100 0.0 103791
17:00−11юв2286100 0.0 103715
20:00−15всв1188100 0.0 10379
25 января, вт
вт2523:00−16всв1187100 0.0 10379
02:00−17вюв118898 0.0 10379
05:00−20юв119599 0.0 10379
08:00−20юв1194100 0.0 10369
11:00−18вюв2293100 0.0 103519
14:00−13ююв238799 0.0 1034100
17:00−16вюв22948 0.0 10339
20:00−20вюв2210070 0.0 10339
26 января, ср
ср2623:00−20вюв2210099 0.0 10329
02:00−20вюв22100100 0.0 10319
05:00−20вюв2210097 0.0 103010
08:00−20вюв2210099 0.0 102814
11:00−16юв41199100 0.1 1027206
14:00−11юв61395100 0.1 1025319
17:00−9ююв61294100 0.9 1023380
20:00−8ююв51095100 0.4 1023258
27 января, чт
чт2723:00−7ююв51095100 0.6 1023238
02:00−5ю4996100 0.3 1023350
05:00−9ююз2298100 0.4 102414
08:00−12ю119998 0.1 102510
11:00−11юв1199100 0.2 102510
14:00−6ю1296100 0.1 1024109
17:00−5юв359596 0.1 1024222
20:00−10в2299100 0.1 102413
28 января, пт
пт2823:00−8в2296100 0.2 102226
02:00−7в2395100 0.0 102237
05:00−7вюв3692100 0.0 1021114
08:00−8вюв3690100 0.0 102099
11:00−8вюв3689100 0.0 1020122
14:00−6юв4885100 0.0 1019311
17:00−7вюв3689100 0.0 101890
20:00−9вюв3691100 0.0 101863